TimeCDT,TemperatureF,Dew PointF,Humidity,Sea Level PressureIn,VisibilityMPH,Wind Direction,Wind SpeedMPH,Gust SpeedMPH,PrecipitationIn,Events,Conditions,WindDirDegrees,DateUTC
12:53 AM,64.0,60.1,87,29.91,10.0,East,3.5,-,N/A,,Clear,90,2013-04-30 05:53:00
1:53 AM,64.0,60.1,87,29.91,9.0,SE,4.6,-,N/A,,Clear,130,2013-04-30 06:53:00
2:53 AM,64.0,60.1,87,29.89,10.0,SE,3.5,-,N/A,,Clear,130,2013-04-30 07:53:00
3:53 AM,63.0,60.1,90,29.89,10.0,Calm,Calm,-,N/A,,Clear,0,2013-04-30 08:53:00
4:53 AM,61.0,59.0,93,29.88,8.0,Calm,Calm,-,N/A,,Clear,0,2013-04-30 09:53:00
5:53 AM,60.1,57.9,93,29.90,8.0,Calm,Calm,-,N/A,,Clear,0,2013-04-30 10:53:00
6:53 AM,60.1,57.9,93,29.92,7.0,Calm,Calm,-,N/A,,Clear,0,2013-04-30 11:53:00
7:53 AM,66.0,62.1,87,29.92,8.0,SE,3.5,-,N/A,,Clear,140,2013-04-30 12:53:00
8:53 AM,71.1,64.9,81,29.92,10.0,North,-9999.0,-,N/A,,Clear,0,2013-04-30 13:53:00
9:53 AM,75.9,64.0,67,29.93,10.0,SSE,10.4,-,N/A,,Clear,150,2013-04-30 14:53:00
10:53 AM,78.1,62.1,58,29.93,10.0,ESE,10.4,-,N/A,,Clear,120,2013-04-30 15:53:00
11:53 AM,79.0,62.1,56,29.91,10.0,SSE,11.5,-,N/A,,Mostly Cloudy,160,2013-04-30 16:53:00
12:53 PM,81.0,61.0,50,29.91,10.0,SSE,11.5,-,N/A,,Clear,150,2013-04-30 17:53:00
1:53 PM,82.0,61.0,49,29.89,10.0,SE,8.1,-,N/A,,Partly Cloudy,140,2013-04-30 18:53:00
2:53 PM,81.0,60.1,49,29.88,10.0,SE,8.1,-,N/A,,Scattered Clouds,130,2013-04-30 19:53:00
3:53 PM,80.1,61.0,52,29.86,10.0,ESE,9.2,-,N/A,,Partly Cloudy,120,2013-04-30 20:53:00
4:53 PM,79.0,62.1,56,29.86,10.0,ESE,9.2,-,N/A,,Clear,120,2013-04-30 21:53:00
5:53 PM,77.0,63.0,62,29.86,10.0,SE,4.6,-,N/A,,Scattered Clouds,130,2013-04-30 22:53:00
6:53 PM,69.1,64.0,84,29.90,9.0,Variable,4.6,-,0.01,Rain,Light Rain,0,2013-04-30 23:53:00
7:53 PM,68.0,64.9,90,29.90,9.0,Calm,Calm,-,0.01,Rain,Light Rain,0,2013-05-01 00:53:00
8:53 PM,68.0,64.9,90,29.91,10.0,ESE,8.1,-,0.00,,Scattered Clouds,110,2013-05-01 01:53:00
9:53 PM,66.9,64.0,90,29.92,10.0,SE,4.6,-,0.00,,Scattered Clouds,130,2013-05-01 02:53:00
10:53 PM,66.9,64.9,93,29.92,9.0,SE,5.8,-,0.01,Rain,Light Rain,130,2013-05-01 03:53:00
11:53 PM,66.9,64.9,93,29.93,9.0,East,5.8,-,0.02,Rain,Light Rain,100,2013-05-01 04:53:00